| time (UTC) | temp C | wind direction | speed KPH | gust KPH | rain 1hr cm | rain 24hr cm | rain mn cm | humidity % | barometer mb |
| 20260506234728 | 12 | 358 | 3.2 | 3.2 | 0.00 | 1.78 | 0.76 | 56 | 1012.4 |
| 20260506233732 | 12 | 343 | 0.0 | 1.6 | 0.00 | 1.78 | 0.76 | 55 | 1012.2 |
| 20260506231711 | 12 | 356 | 0.0 | 3.2 | 0.00 | 1.78 | 0.76 | 54 | 1012.5 |
| 20260506225709 | 12 | 341 | 0.0 | 4.8 | 0.00 | 1.78 | 0.76 | 55 | 1012.6 |
| 20260506224701 | 12 | 36 | 3.2 | 4.8 | 0.00 | 1.80 | 0.76 | 53 | 1012.8 |
| 20260506222702 | 12 | 353 | 0.0 | 4.8 | 0.00 | 1.85 | 0.76 | 53 | 1012.9 |
| 20260506221701 | 13 | 3 | 1.6 | 3.2 | 0.00 | 1.91 | 0.76 | 52 | 1012.7 |
| 20260506220701 | 13 | 348 | 0.0 | 17.7 | 0.00 | 2.01 | 0.76 | 52 | 1012.3 |
| 20260506215701 | 13 | 21 | 3.2 | 4.8 | 0.00 | 2.06 | 0.76 | 50 | 1012.2 |
| 20260506214703 | 13 | 322 | 3.2 | 9.7 | 0.00 | 2.24 | 0.76 | 48 | 1012.0 |
| 20260506213700 | 13 | 285 | 4.8 | 6.4 | 0.00 | 2.31 | 0.76 | 49 | 1012.2 |
| 20260506212659 | 13 | 39 | 0.0 | 6.4 | 0.00 | 2.31 | 0.76 | 52 | 1011.9 |
| 20260506211659 | 13 | 337 | 3.2 | 9.7 | 0.00 | 2.31 | 0.76 | 50 | 1011.7 |
| 20260506205640 | 13 | 321 | 1.6 | 3.2 | 0.00 | 2.31 | 0.76 | 51 | 1011.7 |
| 20260506204632 | 13 | 350 | 0.0 | 11.3 | 0.00 | 2.31 | 0.76 | 52 | 1011.6 |
| 20260506203630 | 14 | 30 | 1.6 | 6.4 | 0.00 | 2.31 | 0.76 | 50 | 1011.9 |
| 20260506202630 | 14 | 344 | 1.6 | 9.7 | 0.00 | 2.31 | 0.76 | 52 | 1011.3 |
| 20260506201630 | 14 | 270 | 3.2 | 12.9 | 0.00 | 2.31 | 0.76 | 50 | 1011.5 |
| 20260506200630 | 15 | 352 | 0.0 | 14.5 | 0.00 | 2.31 | 0.76 | 51 | 1011.6 |
| 20260506194629 | 15 | 324 | 6.4 | 9.7 | 0.00 | 2.31 | 0.76 | 45 | 1011.4 |
| 20260506193620 | 15 | 339 | 6.4 | 12.9 | 0.00 | 2.31 | 0.76 | 48 | 1011.3 |
| 20260506192619 | 16 | 6 | 1.6 | 17.7 | 0.00 | 2.31 | 0.76 | 51 | 1011.2 |
| 20260506191613 | 16 | 326 | 3.2 | 6.4 | 0.00 | 2.31 | 0.76 | 45 | 1011.1 |
| 20260506190615 | 16 | 56 | 1.6 | 11.3 | 0.00 | 2.31 | 0.76 | 50 | 1011.3 |
| 20260506185614 | 16 | 332 | 0.0 | 16.1 | 0.00 | 2.31 | 0.76 | 51 | 1011.3 |
| 20260506184606 | 15 | 358 | 0.0 | 9.7 | 0.00 | 2.31 | 0.76 | 50 | 1011.4 |
| 20260506183601 | 15 | 357 | 1.6 | 6.4 | 0.00 | 2.31 | 0.76 | 50 | 1011.2 |
| 20260506182601 | 15 | 255 | 1.6 | 6.4 | 0.00 | 2.31 | 0.76 | 48 | 1011.4 |
| 20260506181609 | 15 | 339 | 1.6 | 11.3 | 0.00 | 2.31 | 0.76 | 49 | 1011.5 |
| 20260506180603 | 15 | 327 | 3.2 | 12.9 | 0.00 | 2.31 | 0.76 | 48 | 1011.5 |
| 20260506175601 | 15 | 349 | 0.0 | 14.5 | 0.00 | 2.31 | 0.76 | 50 | 1011.3 |
| 20260506173602 | 15 | 314 | 3.2 | 9.7 | 0.00 | 2.31 | 0.76 | 51 | 1011.8 |
| 20260506172601 | 15 | 16 | 1.6 | 9.7 | 0.00 | 2.31 | 0.76 | 51 | 1011.5 |
| 20260506171602 | 14 | 12 | 4.8 | 12.9 | 0.00 | 2.31 | 0.76 | 53 | 1011.6 |
| 20260506170600 | 15 | 5 | 0.0 | 9.7 | 0.00 | 2.31 | 0.76 | 57 | 1011.5 |
| 20260506165559 | 15 | 16 | 0.0 | 6.4 | 0.00 | 2.31 | 0.76 | 56 | 1011.3 |
| 20260506164552 | 15 | 49 | 1.6 | 6.4 | 0.00 | 2.31 | 0.76 | 54 | 1011.5 |
| 20260506163548 | 14 | 353 | 0.0 | 6.4 | 0.00 | 2.31 | 0.76 | 59 | 1011.9 |
| 20260506162541 | 13 | 4 | 0.0 | 11.3 | 0.00 | 2.31 | 0.76 | 60 | 1011.6 |
| 20260506161530 | 13 | 333 | 3.2 | 6.4 | 0.00 | 2.31 | 0.76 | 57 | 1011.8 |
| 20260506160531 | 13 | 318 | 0.0 | 9.7 | 0.00 | 2.31 | 0.76 | 57 | 1011.4 |
| 20260506155529 | 12 | 352 | 1.6 | 4.8 | 0.00 | 2.31 | 0.76 | 66 | 1011.3 |
| 20260506154530 | 12 | 335 | 1.6 | 9.7 | 0.00 | 2.31 | 0.76 | 67 | 1011.3 |
| 20260506151530 | 12 | 344 | 0.0 | 3.2 | 0.00 | 2.31 | 0.76 | 70 | 1011.0 |
| 20260506145529 | 10 | 1 | 0.0 | 3.2 | 0.00 | 2.31 | 0.76 | 77 | 1011.0 |
| 20260506144529 | 10 | 59 | 0.0 | 3.2 | 0.00 | 2.31 | 0.76 | 81 | 1010.7 |
| 20260506143527 | 9 | 330 | 0.0 | 6.4 | 0.00 | 2.31 | 0.76 | 82 | 1010.9 |
| 20260506141522 | 7 | 326 | 0.0 | 4.8 | 0.00 | 2.31 | 0.76 | 94 | 1010.2 |
| 20260506140517 | 7 | 346 | 1.6 | 4.8 | 0.00 | 2.31 | 0.76 | 97 | 1010.2 |
| 20260506135513 | 8 | 340 | 0.0 | 4.8 | 0.00 | 2.31 | 0.76 | 98 | 1010.1 |
| 20260506134506 | 8 | 1 | 0.0 | 6.4 | 0.00 | 2.31 | 0.76 | 98 | 1009.9 |
| 20260506133504 | 7 | 339 | 0.0 | 9.7 | 0.00 | 2.31 | 0.76 | 99 | 1009.9 |
| 20260506132513 | 7 | 1 | 1.6 | 11.3 | 0.00 | 2.31 | 0.76 | 99 | 1009.5 |
| 20260506131505 | 8 | 347 | 3.2 | 6.4 | 0.00 | 2.31 | 0.76 | 99 | 1009.7 |
| 20260506130501 | 8 | 330 | 1.6 | 4.8 | 0.00 | 2.31 | 0.76 | 99 | 1009.8 |
| 20260506125502 | 8 | 352 | 0.0 | 4.8 | 0.00 | 2.31 | 0.76 | 99 | 1009.4 |
| 20260506124453 | 8 | 321 | 3.2 | 4.8 | 0.00 | 2.31 | 0.76 | 99 | 1009.6 |
| 20260506123453 | 8 | 344 | 0.0 | 4.8 | 0.00 | 2.31 | 0.76 | 99 | 1008.9 |
| 20260506121447 | 8 | 325 | 0.0 | 4.8 | 0.00 | 2.31 | 0.76 | 99 | 1008.4 |
| 20260506115446 | 7 | 348 | 0.0 | 1.6 | 0.00 | 2.31 | 0.76 | 99 | 1008.5 |
| 20260506114442 | 7 | 338 | 0.0 | 3.2 | 0.00 | 2.31 | 0.76 | 99 | 1009.0 |
| 20260506113442 | 7 | 343 | 0.0 | 1.6 | 0.00 | 2.31 | 0.76 | 99 | 1008.6 |
| 20260506111431 | 7 | 348 | 0.0 | 4.8 | 0.00 | 2.31 | 0.76 | 99 | 1007.7 |
| 20260506105429 | 7 | 51 | 0.0 | 6.4 | 0.00 | 2.31 | 0.76 | 99 | 1007.5 |
| 20260506104429 | 7 | 358 | 0.0 | 4.8 | 0.00 | 2.31 | 0.76 | 99 | 1007.8 |
| 20260506103430 | 7 | 333 | 0.0 | 1.6 | 0.00 | 2.31 | 0.76 | 99 | 1007.8 |
| 20260506102428 | 7 | 345 | 0.0 | 1.6 | 0.00 | 2.31 | 0.76 | 99 | 1007.2 |
| 20260506101429 | 7 | 345 | 0.0 | 3.2 | 0.03 | 2.31 | 0.76 | 99 | 1007.4 |
| 20260506100429 | 7 | 1 | 0.0 | 3.2 | 0.03 | 2.31 | 0.76 | 99 | 1006.6 |
| 20260506095429 | 7 | 333 | 0.0 | 3.2 | 0.05 | 2.29 | 0.76 | 99 | 1006.4 |
| 20260506093416 | 7 | 347 | 0.0 | 6.4 | 0.13 | 2.29 | 0.76 | 99 | 1006.5 |
| 20260506092406 | 7 | 350 | 0.0 | 3.2 | 0.18 | 2.29 | 0.74 | 99 | 1006.8 |
| 20260506091411 | 7 | 339 | 0.0 | 9.7 | 0.20 | 2.29 | 0.74 | 99 | 1006.5 |
| 20260506090406 | 7 | 27 | 0.0 | 6.4 | 0.20 | 2.29 | 0.74 | 99 | 1006.3 |
| 20260506085402 | 7 | 352 | 0.0 | 4.8 | 0.20 | 2.08 | 0.71 | 99 | 1006.6 |
| 20260506084401 | 7 | 343 | 0.0 | 6.4 | 0.18 | 2.08 | 0.69 | 99 | 1007.0 |
| 20260506083401 | 7 | 0 | 0.0 | 4.8 | 0.13 | 2.08 | 0.64 | 99 | 1006.6 |
| 20260506082401 | 8 | 358 | 0.0 | 9.7 | 0.08 | 2.08 | 0.58 | 99 | 1006.3 |
| 20260506081402 | 8 | 345 | 1.6 | 4.8 | 0.05 | 2.08 | 0.53 | 99 | 1006.4 |
| 20260506080401 | 8 | 18 | 3.2 | 6.4 | 0.08 | 2.08 | 0.53 | 99 | 1006.0 |
| 20260506073401 | 8 | 350 | 3.2 | 4.8 | 0.15 | 2.01 | 0.51 | 99 | 1006.0 |
| 20260506072401 | 8 | 321 | 1.6 | 3.2 | 0.20 | 2.01 | 0.51 | 99 | 1005.6 |
| 20260506071401 | 8 | 354 | 0.0 | 4.8 | 0.20 | 2.01 | 0.48 | 99 | 1005.6 |
| 20260506070359 | 9 | 342 | 0.0 | 4.8 | 0.23 | 2.01 | 0.46 | 99 | 1005.8 |
| 20260506062340 | 10 | 328 | 3.2 | 4.8 | 0.25 | 1.78 | 0.30 | 99 | 1006.0 |
| 20260506060336 | 10 | 345 | 0.0 | 3.2 | 0.23 | 1.78 | 0.23 | 99 | 1005.9 |
| 20260506051322 | 10 | 344 | 0.0 | 1.6 | 0.03 | 1.55 | 0.00 | 99 | 1006.3 |
| 20260506050323 | 10 | 347 | 0.0 | 1.6 | 0.00 | 1.55 | 0.00 | 99 | 1006.2 |
| 20260506044317 | 10 | 346 | 0.0 | 1.6 | 0.05 | 1.55 | 0.00 | 98 | 1006.2 |
| 20260506043312 | 10 | 327 | 1.6 | 1.6 | 0.08 | 1.55 | 0.00 | 98 | 1006.5 |
| 20260506042312 | 10 | 351 | 1.6 | 4.8 | 0.15 | 1.55 | 0.00 | 98 | 1006.5 |
| 20260506041311 | 10 | 341 | 0.0 | 4.8 | 0.25 | 1.55 | 0.00 | 98 | 1006.7 |
| 20260506032305 | 14 | 328 | 3.2 | 4.8 | 0.41 | 1.17 | 1.40 | 98 | 1007.1 |
| 20260506031300 | 14 | 229 | 3.2 | 4.8 | 0.38 | 1.17 | 1.30 | 98 | 1007.3 |
| 20260506030301 | 14 | 338 | 0.0 | 4.8 | 0.36 | 1.17 | 1.19 | 98 | 1007.4 |
| 20260506025305 | 14 | 317 | 0.0 | 4.8 | 0.33 | 0.84 | 1.12 | 98 | 1007.2 |
| 20260506024300 | 14 | 7 | 3.2 | 6.4 | 0.38 | 0.84 | 1.12 | 98 | 1007.0 |
| 20260506023301 | 14 | 344 | 0.0 | 9.7 | 0.38 | 0.84 | 1.07 | 98 | 1007.2 |
| 20260506022301 | 15 | 298 | 1.6 | 4.8 | 0.33 | 0.84 | 0.97 | 98 | 1007.3 |
| 20260506020301 | 15 | 4 | 0.0 | 1.6 | 0.23 | 0.84 | 0.86 | 98 | 1007.4 |
| 20260506015302 | 15 | 342 | 0.0 | 3.2 | 0.18 | 0.64 | 0.79 | 98 | 1007.3 |
| 20260506013251 | 15 | 336 | 0.0 | 3.2 | 0.13 | 0.64 | 0.66 | 98 | 1007.0 |
| 20260506011239 | 15 | 344 | 0.0 | 1.6 | 0.08 | 0.64 | 0.64 | 98 | 1006.6 |
| 20260506010238 | 15 | 340 | 0.0 | 1.6 | 0.10 | 0.64 | 0.64 | 98 | 1006.8 |
| 20260506005239 | 15 | 231 | 1.6 | 3.2 | 0.10 | 0.53 | 0.64 | 98 | 1007.0 |
| 20260506004230 | 15 | 302 | 1.6 | 4.8 | 0.05 | 0.58 | 0.58 | 97 | 1007.2 |
| 20260506003227 | 15 | 268 | 1.6 | 4.8 | 0.03 | 0.53 | 0.56 | 97 | 1007.0 |
| 20260506002225 | 15 | 199 | 3.2 | 9.7 | 0.03 | 0.56 | 0.56 | 97 | 1006.8 |
| 20260506001221 | 15 | 210 | 3.2 | 3.2 | 0.03 | 0.56 | 0.56 | 97 | 1006.8 |
| 20260506000222 | 15 | 302 | 0.0 | 3.2 | 0.00 | 0.53 | 0.53 | 97 | 1007.0 |